TimeMST,TemperatureF,Dew PointF,Humidity,Sea Level PressureIn,VisibilityMPH,Wind Direction,Wind SpeedMPH,Gust SpeedMPH,PrecipitationIn,Events,Conditions,WindDirDegrees,DateUTC
12:57 AM,27.0,15.1,61,30.08,10.0,Calm,Calm,-,N/A,,Clear,0,2013-10-20 07:57:00
1:57 AM,27.0,16.0,63,30.06,10.0,Calm,Calm,-,N/A,,Clear,0,2013-10-20 08:57:00
2:57 AM,26.1,15.1,63,30.03,10.0,Calm,Calm,-,N/A,,Clear,0,2013-10-20 09:57:00
3:57 AM,24.1,14.0,65,30.03,10.0,Calm,Calm,-,N/A,,Clear,0,2013-10-20 10:57:00
4:57 AM,24.1,14.0,65,30.02,10.0,Calm,Calm,-,N/A,,Clear,0,2013-10-20 11:57:00
6:57 AM,23.0,14.0,68,30.04,10.0,Calm,Calm,-,N/A,,Clear,0,2013-10-20 13:57:00
7:57 AM,35.1,18.0,50,30.01,10.0,Calm,Calm,-,N/A,,Clear,0,2013-10-20 14:57:00
8:57 AM,51.1,19.9,29,29.99,10.0,Calm,Calm,-,N/A,,Clear,0,2013-10-20 15:57:00
9:57 AM,57.9,12.0,16,29.98,10.0,SW,4.6,-,N/A,,Clear,220,2013-10-20 16:57:00
10:57 AM,60.1,12.9,16,29.98,10.0,Calm,Calm,-,N/A,,Clear,0,2013-10-20 17:57:00
11:57 AM,64.0,10.0,12,29.97,10.0,Calm,Calm,-,N/A,,Clear,0,2013-10-20 18:57:00
12:57 PM,64.9,8.1,11,29.95,10.0,Variable,6.9,-,N/A,,Clear,0,2013-10-20 19:57:00
1:57 PM,64.9,6.1,10,29.93,10.0,Variable,5.8,17.3,N/A,,Clear,0,2013-10-20 20:57:00
2:57 PM,66.0,7.0,10,29.93,10.0,NNW,8.1,-,N/A,,Clear,330,2013-10-20 21:57:00
3:57 PM,64.9,7.0,10,29.94,10.0,NW,8.1,-,N/A,,Clear,310,2013-10-20 22:57:00
4:57 PM,63.0,9.0,12,29.95,10.0,Variable,6.9,-,N/A,,Clear,0,2013-10-20 23:57:00
5:57 PM,53.1,16.0,23,30.01,10.0,Calm,Calm,-,N/A,,Clear,0,2013-10-21 00:57:00
6:57 PM,46.9,16.0,29,30.06,10.0,SW,4.6,-,N/A,,Clear,220,2013-10-21 01:57:00
7:57 PM,44.1,15.1,31,30.01,10.0,SSW,3.5,-,N/A,,Clear,210,2013-10-21 02:57:00
8:57 PM,43.0,14.0,31,29.96,10.0,Calm,Calm,-,N/A,,Clear,0,2013-10-21 03:57:00
9:57 PM,39.9,14.0,35,29.95,10.0,South,3.5,-,N/A,,Clear,190,2013-10-21 04:57:00
10:57 PM,37.9,12.9,36,29.96,10.0,Calm,Calm,-,N/A,,Clear,0,2013-10-21 05:57:00
11:57 PM,37.9,14.0,38,29.95,10.0,Calm,Calm,-,N/A,,Clear,0,2013-10-21 06:57:00